Time,TemperatureF,DewpointF,PressureIn,WindDirection,WindDirectionDegrees,WindSpeedMPH,WindSpeedGustMPH,Humidity,HourlyPrecipIn,Conditions,Clouds,dailyrainin,SolarRadiationWatts/m^2,SoftwareType,DateUTC
2014-04-17 00:02:00,41.6,30.3,30.15,ESE,113,3.0,7.0,64,0.00,,,0.00,0,Wunderground v.1.15,2014-04-17 05:02:00,
2014-04-17 00:08:00,41.7,30.4,30.15,SE,142,3.0,7.0,64,0.00,,,0.00,0,Wunderground v.1.15,2014-04-17 05:08:00,
2014-04-17 00:14:00,41.7,30.8,30.14,ESE,116,4.0,4.0,65,0.00,,,0.00,0,Wunderground v.1.15,2014-04-17 05:14:00,
2014-04-17 00:20:00,41.7,30.8,30.14,SE,129,3.0,6.0,65,0.00,,,0.00,0,Wunderground v.1.15,2014-04-17 05:20:00,
2014-04-17 00:26:00,41.5,30.6,30.14,SE,134,3.0,6.0,65,0.00,,,0.00,0,Wunderground v.1.15,2014-04-17 05:26:00,
2014-04-17 00:32:00,41.4,30.5,30.14,ESE,123,2.0,3.0,65,0.00,,,0.00,0,Wunderground v.1.15,2014-04-17 05:32:00,
2014-04-17 00:38:00,41.2,30.7,30.14,SE,132,2.0,4.0,66,0.00,,,0.00,0,Wunderground v.1.15,2014-04-17 05:38:00,
2014-04-17 00:44:00,41.1,30.6,30.14,ESE,108,2.0,5.0,66,0.00,,,0.00,0,Wunderground v.1.15,2014-04-17 05:44:00,
2014-04-17 00:50:00,40.9,30.4,30.14,ESE,109,3.0,3.0,66,0.00,,,0.00,0,Wunderground v.1.15,2014-04-17 05:50:00,
2014-04-17 00:56:00,40.8,30.3,30.14,SE,134,2.0,3.0,66,0.00,,,0.00,0,Wunderground v.1.15,2014-04-17 05:56:00,
2014-04-17 01:02:00,40.6,30.5,30.14,SE,137,2.0,2.0,67,0.00,,,0.00,0,Wunderground v.1.15,2014-04-17 06:02:00,
2014-04-17 01:08:00,40.6,30.5,30.14,SE,125,2.0,4.0,67,0.00,,,0.00,0,Wunderground v.1.15,2014-04-17 06:08:00,
2014-04-17 01:14:00,40.5,30.4,30.14,ESE,119,3.0,5.0,67,0.00,,,0.00,0,Wunderground v.1.15,2014-04-17 06:14:00,
2014-04-17 01:20:00,40.5,30.4,30.14,SE,137,3.0,4.0,67,0.00,,,0.00,0,Wunderground v.1.15,2014-04-17 06:20:00,
2014-04-17 01:26:00,40.5,30.4,30.14,ESE,117,2.0,5.0,67,0.00,,,0.00,0,Wunderground v.1.15,2014-04-17 06:26:00,
2014-04-17 01:32:00,40.6,30.5,30.14,ESE,121,2.0,4.0,67,0.00,,,0.00,0,Wunderground v.1.15,2014-04-17 06:32:00,
2014-04-17 01:38:00,40.6,30.5,30.14,East,86,2.0,6.0,67,0.00,,,0.00,0,Wunderground v.1.15,2014-04-17 06:38:00,
2014-04-17 01:44:00,40.7,30.6,30.13,SE,126,2.0,2.0,67,0.00,,,0.00,0,Wunderground v.1.15,2014-04-17 06:44:00,
2014-04-17 01:50:00,40.7,30.6,30.13,ESE,104,2.0,2.0,67,0.00,,,0.00,0,Wunderground v.1.15,2014-04-17 06:50:00,
2014-04-17 01:56:00,40.7,30.6,30.13,SE,130,2.0,3.0,67,0.00,,,0.00,0,Wunderground v.1.15,2014-04-17 06:56:00,
2014-04-17 02:02:00,40.8,30.7,30.13,SE,136,1.0,4.0,67,0.00,,,0.00,0,Wunderground v.1.15,2014-04-17 07:02:00,
2014-04-17 02:08:00,40.9,30.8,30.13,SE,146,2.0,4.0,67,0.00,,,0.00,0,Wunderground v.1.15,2014-04-17 07:08:00,
2014-04-17 02:14:00,41.0,30.5,30.13,SE,128,1.0,2.0,66,0.00,,,0.00,0,Wunderground v.1.15,2014-04-17 07:14:00,
2014-04-17 02:20:00,41.1,30.6,30.13,East,99,2.0,2.0,66,0.00,,,0.00,0,Wunderground v.1.15,2014-04-17 07:20:00,
2014-04-17 02:26:00,41.2,30.7,30.13,ESE,110,3.0,5.0,66,0.00,,,0.00,0,Wunderground v.1.15,2014-04-17 07:26:00,
2014-04-17 02:32:00,41.3,30.4,30.12,ESE,122,3.0,3.0,65,0.00,,,0.00,0,Wunderground v.1.15,2014-04-17 07:32:00,
2014-04-17 02:38:00,41.3,30.4,30.12,SE,132,3.0,3.0,65,0.00,,,0.00,0,Wunderground v.1.15,2014-04-17 07:38:00,
2014-04-17 02:44:00,41.3,30.4,30.12,ESE,111,3.0,8.0,65,0.00,,,0.00,0,Wunderground v.1.15,2014-04-17 07:44:00,
2014-04-17 02:50:00,41.4,30.1,30.12,ESE,109,2.0,2.0,64,0.00,,,0.00,0,Wunderground v.1.15,2014-04-17 07:50:00,
2014-04-17 02:56:00,41.5,29.8,30.12,ESE,117,3.0,3.0,63,0.00,,,0.00,0,Wunderground v.1.15,2014-04-17 07:56:00,
2014-04-17 03:02:00,41.5,29.8,30.11,SE,133,3.0,3.0,63,0.00,,,0.00,0,Wunderground v.1.15,2014-04-17 08:02:00,
2014-04-17 03:08:00,41.6,29.5,30.11,East,88,2.0,3.0,62,0.00,,,0.00,0,Wunderground v.1.15,2014-04-17 08:08:00,
2014-04-17 03:14:00,41.7,29.6,30.11,ESE,110,2.0,3.0,62,0.00,,,0.00,0,Wunderground v.1.15,2014-04-17 08:14:00,
2014-04-17 03:20:00,41.8,28.9,30.11,ESE,123,3.0,3.0,60,0.00,,,0.00,0,Wunderground v.1.15,2014-04-17 08:20:00,
2014-04-17 03:26:00,42.1,28.8,30.11,ESE,112,4.0,5.0,59,0.00,,,0.00,0,Wunderground v.1.15,2014-04-17 08:26:00,
2014-04-17 03:32:00,42.3,28.6,30.10,SE,126,4.0,4.0,58,0.00,,,0.00,0,Wunderground v.1.15,2014-04-17 08:32:00,
2014-04-17 03:38:00,42.5,28.8,30.10,SSE,155,4.0,7.0,58,0.00,,,0.00,0,Wunderground v.1.15,2014-04-17 08:38:00,
2014-04-17 03:44:00,42.7,28.5,30.10,SSE,151,4.0,5.0,57,0.00,,,0.00,0,Wunderground v.1.15,2014-04-17 08:44:00,
2014-04-17 03:50:00,42.7,28.5,30.10,ESE,109,4.0,4.0,57,0.00,,,0.00,0,Wunderground v.1.15,2014-04-17 08:50:00,
2014-04-17 03:56:00,42.8,28.6,30.10,SE,144,4.0,9.0,57,0.00,,,0.00,0,Wunderground v.1.15,2014-04-17 08:56:00,
2014-04-17 04:02:00,42.9,28.7,30.09,ESE,104,4.0,7.0,57,0.00,,,0.00,0,Wunderground v.1.15,2014-04-17 09:02:00,
2014-04-17 04:08:00,42.9,28.7,30.09,SE,132,4.0,7.0,57,0.00,,,0.00,0,Wunderground v.1.15,2014-04-17 09:08:00,
2014-04-17 04:14:00,42.9,28.7,30.09,SSE,153,3.0,6.0,57,0.00,,,0.00,0,Wunderground v.1.15,2014-04-17 09:14:00,
2014-04-17 04:20:00,42.9,28.3,30.09,East,96,3.0,8.0,56,0.00,,,0.00,0,Wunderground v.1.15,2014-04-17 09:20:00,
2014-04-17 04:26:00,42.9,28.7,30.09,SE,126,3.0,8.0,57,0.00,,,0.00,0,Wunderground v.1.15,2014-04-17 09:26:00,
2014-04-17 04:28:00,42.9,28.7,30.08,ESE,108,3.0,8.0,57,0.00,,,0.00,0,Wunderground v.1.15,2014-04-17 09:28:00,
2014-04-17 04:34:00,42.9,28.7,30.08,SSE,152,2.0,3.0,57,0.00,,,0.00,0,Wunderground v.1.15,2014-04-17 09:34:00,
2014-04-17 04:40:00,42.9,28.7,30.08,SE,144,2.0,2.0,57,0.00,,,0.00,0,Wunderground v.1.15,2014-04-17 09:40:00,
2014-04-17 04:46:00,42.9,28.7,30.08,ESE,109,3.0,3.0,57,0.00,,,0.00,0,Wunderground v.1.15,2014-04-17 09:46:00,
2014-04-17 04:52:00,43.0,28.8,30.08,SSW,206,3.0,5.0,57,0.00,,,0.00,0,Wunderground v.1.15,2014-04-17 09:52:00,
2014-04-17 04:58:00,43.1,28.9,30.08,SE,125,2.0,5.0,57,0.00,,,0.00,0,Wunderground v.1.15,2014-04-17 09:58:00,
2014-04-17 05:05:00,43.1,28.9,30.08,SE,143,3.0,8.0,57,0.00,,,0.00,0,Wunderground v.1.15,2014-04-17 10:05:00,
2014-04-17 05:10:00,43.0,28.8,30.08,SE,145,2.0,2.0,57,0.00,,,0.00,0,Wunderground v.1.15,2014-04-17 10:10:00,
2014-04-17 05:16:00,43.1,28.9,30.08,SE,128,2.0,3.0,57,0.00,,,0.00,0,Wunderground v.1.15,2014-04-17 10:16:00,
2014-04-17 05:22:00,43.0,28.8,30.08,SSE,155,2.0,2.0,57,0.00,,,0.00,0,Wunderground v.1.15,2014-04-17 10:22:00,
2014-04-17 05:28:00,43.1,28.9,30.07,SSE,150,2.0,3.0,57,0.00,,,0.00,0,Wunderground v.1.15,2014-04-17 10:28:00,
2014-04-17 05:34:00,43.2,29.0,30.07,South,170,3.0,3.0,57,0.00,,,0.00,0,Wunderground v.1.15,2014-04-17 10:34:00,
2014-04-17 05:40:00,43.4,29.2,30.07,South,190,4.0,4.0,57,0.00,,,0.00,0,Wunderground v.1.15,2014-04-17 10:40:00,
2014-04-17 05:46:00,43.5,29.3,30.07,SSE,151,2.0,4.0,57,0.00,,,0.00,0,Wunderground v.1.15,2014-04-17 10:46:00,
2014-04-17 05:52:00,43.7,29.5,30.07,SSE,167,3.0,3.0,57,0.00,,,0.00,0,Wunderground v.1.15,2014-04-17 10:52:00,
2014-04-17 05:58:00,44.0,29.7,30.07,SE,128,3.0,4.0,57,0.00,,,0.00,0,Wunderground v.1.15,2014-04-17 10:58:00,
2014-04-17 06:05:00,44.2,29.9,30.07,SSE,152,3.0,4.0,57,0.00,,,0.00,0,Wunderground v.1.15,2014-04-17 11:05:00,
2014-04-17 06:10:00,44.3,30.0,30.07,SE,146,3.0,10.0,57,0.00,,,0.00,0,Wunderground v.1.15,2014-04-17 11:10:00,
2014-04-17 06:16:00,44.5,30.6,30.08,SSW,196,4.0,10.0,58,0.00,,,0.00,0,Wunderground v.1.15,2014-04-17 11:16:00,
2014-04-17 06:22:00,44.5,30.2,30.08,South,190,3.0,4.0,57,0.00,,,0.00,0,Wunderground v.1.15,2014-04-17 11:22:00,
2014-04-17 06:28:00,44.5,30.6,30.08,SSW,196,3.0,4.0,58,0.00,,,0.00,7,Wunderground v.1.15,2014-04-17 11:28:00,
2014-04-17 06:34:00,44.5,30.6,30.08,SE,132,3.0,7.0,58,0.00,,,0.00,14,Wunderground v.1.15,2014-04-17 11:34:00,
2014-04-17 06:40:00,44.4,30.5,30.08,SSW,202,3.0,4.0,58,0.00,,,0.00,19,Wunderground v.1.15,2014-04-17 11:40:00,
2014-04-17 06:46:00,44.3,30.4,30.08,SSW,202,3.0,4.0,58,0.00,,,0.00,28,Wunderground v.1.15,2014-04-17 11:46:00,
2014-04-17 06:52:00,44.3,30.9,30.08,SE,140,4.0,4.0,59,0.00,,,0.00,40,Wunderground v.1.15,2014-04-17 11:52:00,
2014-04-17 06:58:00,44.2,30.8,30.08,SE,125,2.0,4.0,59,0.00,,,0.00,60,Wunderground v.1.15,2014-04-17 11:58:00,
2014-04-17 07:05:00,44.1,30.7,30.08,SSE,151,3.0,4.0,59,0.00,,,0.00,63,Wunderground v.1.15,2014-04-17 12:05:00,
2014-04-17 07:10:00,44.0,31.0,30.08,SE,144,3.0,3.0,60,0.00,,,0.00,63,Wunderground v.1.15,2014-04-17 12:10:00,
2014-04-17 07:16:00,43.9,31.3,30.08,SE,133,2.0,4.0,61,0.00,,,0.00,69,Wunderground v.1.15,2014-04-17 12:16:00,
2014-04-17 07:22:00,43.9,31.7,30.08,SSE,159,2.0,2.0,62,0.00,,,0.00,72,Wunderground v.1.15,2014-04-17 12:22:00,
2014-04-17 07:28:00,43.9,32.1,30.09,SSW,200,1.0,5.0,63,0.00,,,0.00,74,Wunderground v.1.15,2014-04-17 12:28:00,
2014-04-17 07:34:00,43.9,32.5,30.09,SSE,158,2.0,2.0,64,0.00,,,0.00,95,Wunderground v.1.15,2014-04-17 12:34:00,
2014-04-17 07:40:00,44.0,33.0,30.09,South,191,3.0,3.0,65,0.00,,,0.00,116,Wunderground v.1.15,2014-04-17 12:40:00,
2014-04-17 07:46:00,44.3,33.3,30.09,SW,217,5.0,9.0,65,0.00,,,0.00,137,Wunderground v.1.15,2014-04-17 12:46:00,
2014-04-17 07:52:00,44.8,33.4,30.09,SSW,208,7.0,15.0,64,0.00,,,0.00,162,Wunderground v.1.15,2014-04-17 12:52:00,
2014-04-17 07:58:00,44.9,33.1,30.10,SW,217,9.0,16.0,63,0.00,,,0.00,197,Wunderground v.1.15,2014-04-17 12:58:00,
2014-04-17 08:04:00,44.8,33.7,30.10,South,178,10.0,10.0,65,0.00,,,0.00,239,Wunderground v.1.15,2014-04-17 13:04:00,
2014-04-17 08:10:00,44.6,33.2,30.10,SSW,213,11.0,11.0,64,0.00,,,0.00,322,Wunderground v.1.15,2014-04-17 13:10:00,
2014-04-17 08:16:00,44.7,33.6,30.09,SSW,198,11.0,13.0,65,0.00,,,0.00,287,Wunderground v.1.15,2014-04-17 13:16:00,
2014-04-17 08:22:00,44.8,34.1,30.09,SSW,211,11.0,14.0,66,0.00,,,0.00,232,Wunderground v.1.15,2014-04-17 13:22:00,
2014-04-17 08:28:00,44.9,33.8,30.10,SSW,203,13.0,20.0,65,0.00,,,0.00,141,Wunderground v.1.15,2014-04-17 13:28:00,
2014-04-17 08:34:00,44.7,33.6,30.10,SW,217,15.0,20.0,65,0.00,,,0.00,155,Wunderground v.1.15,2014-04-17 13:34:00,
2014-04-17 08:40:00,44.7,33.6,30.10,SSW,205,14.0,14.0,65,0.00,,,0.00,181,Wunderground v.1.15,2014-04-17 13:40:00,
2014-04-17 08:46:00,44.8,34.1,30.11,SSW,212,14.0,24.0,66,0.00,,,0.00,234,Wunderground v.1.15,2014-04-17 13:46:00,
2014-04-17 08:52:00,45.0,35.1,30.11,SSW,208,13.0,16.0,68,0.00,,,0.00,178,Wunderground v.1.15,2014-04-17 13:52:00,
2014-04-17 08:58:00,45.0,34.7,30.11,SSW,211,14.0,16.0,67,0.00,,,0.00,197,Wunderground v.1.15,2014-04-17 13:58:00,
2014-04-17 09:04:00,45.1,35.5,30.11,SSW,197,13.0,14.0,69,0.00,,,0.00,276,Wunderground v.1.15,2014-04-17 14:04:00,
2014-04-17 09:10:00,45.2,36.0,30.11,SSW,209,13.0,13.0,70,0.00,,,0.00,461,Wunderground v.1.15,2014-04-17 14:10:00,
2014-04-17 09:16:00,45.6,36.7,30.11,SSW,211,13.0,15.0,71,0.00,,,0.00,325,Wunderground v.1.15,2014-04-17 14:16:00,
2014-04-17 09:22:00,45.7,36.8,30.11,SSW,204,12.0,12.0,71,0.00,,,0.00,459,Wunderground v.1.15,2014-04-17 14:22:00,
2014-04-17 09:28:00,45.9,37.0,30.11,SW,225,12.0,18.0,71,0.00,,,0.00,503,Wunderground v.1.15,2014-04-17 14:28:00,
2014-04-17 09:34:00,46.2,37.0,30.11,SSW,206,15.0,17.0,70,0.00,,,0.00,394,Wunderground v.1.15,2014-04-17 14:34:00,
2014-04-17 09:40:00,46.3,37.4,30.11,SW,227,14.0,14.0,71,0.00,,,0.00,591,Wunderground v.1.15,2014-04-17 14:40:00,
2014-04-17 09:46:00,46.7,37.4,30.11,SW,225,13.0,15.0,70,0.00,,,0.00,635,Wunderground v.1.15,2014-04-17 14:46:00,
2014-04-17 09:52:00,46.7,37.4,30.11,SW,222,13.0,15.0,70,0.00,,,0.00,199,Wunderground v.1.15,2014-04-17 14:52:00,
2014-04-17 09:58:00,46.6,37.7,30.12,WSW,240,14.0,18.0,71,0.00,,,0.00,200,Wunderground v.1.15,2014-04-17 14:58:00,
2014-04-17 10:05:00,46.6,37.7,30.12,SW,224,14.0,16.0,71,0.00,,,0.00,232,Wunderground v.1.15,2014-04-17 15:05:00,
2014-04-17 10:10:00,46.7,37.8,30.12,SW,219,12.0,14.0,71,0.00,,,0.00,255,Wunderground v.1.15,2014-04-17 15:10:00,
2014-04-17 10:16:00,46.7,38.1,30.13,SSW,211,11.0,14.0,72,0.00,,,0.00,279,Wunderground v.1.15,2014-04-17 15:16:00,
2014-04-17 10:22:00,46.9,38.3,30.13,SW,222,10.0,12.0,72,0.00,,,0.00,299,Wunderground v.1.15,2014-04-17 15:22:00,
2014-04-17 10:28:00,46.6,38.4,30.14,WSW,240,13.0,14.0,73,0.00,,,0.00,234,Wunderground v.1.15,2014-04-17 15:28:00,
2014-04-17 10:34:00,46.6,38.4,30.14,SSW,205,13.0,14.0,73,0.00,,,0.00,276,Wunderground v.1.15,2014-04-17 15:34:00,
2014-04-17 10:40:00,46.7,38.5,30.14,SSW,204,13.0,13.0,73,0.00,,,0.00,197,Wunderground v.1.15,2014-04-17 15:40:00,
2014-04-17 10:46:00,46.5,38.3,30.15,SSW,205,13.0,13.0,73,0.00,,,0.00,146,Wunderground v.1.15,2014-04-17 15:46:00,
2014-04-17 10:52:00,46.5,38.3,30.15,SSW,208,13.0,14.0,73,0.00,,,0.00,155,Wunderground v.1.15,2014-04-17 15:52:00,
2014-04-17 10:58:00,46.5,38.3,30.15,WSW,242,12.0,14.0,73,0.00,,,0.00,146,Wunderground v.1.15,2014-04-17 15:58:00,
2014-04-17 11:05:00,46.4,38.9,30.15,SW,225,14.0,16.0,75,0.00,,,0.00,156,Wunderground v.1.15,2014-04-17 16:05:00,
2014-04-17 11:10:00,46.2,38.7,30.15,West,262,15.0,15.0,75,0.00,,,0.00,285,Wunderground v.1.15,2014-04-17 16:10:00,
2014-04-17 11:16:00,46.3,38.8,30.16,SW,236,15.0,17.0,75,0.00,,,0.00,299,Wunderground v.1.15,2014-04-17 16:16:00,
2014-04-17 11:22:00,46.2,38.7,30.16,WSW,238,15.0,18.0,75,0.00,,,0.00,566,Wunderground v.1.15,2014-04-17 16:22:00,
2014-04-17 11:28:00,46.4,38.2,30.17,WSW,248,15.0,18.0,73,0.00,,,0.00,388,Wunderground v.1.15,2014-04-17 16:28:00,
2014-04-17 11:34:00,46.7,38.5,30.17,SSW,213,15.0,18.0,73,0.00,,,0.00,367,Wunderground v.1.15,2014-04-17 16:34:00,
2014-04-17 11:40:00,46.6,38.4,30.17,SW,219,14.0,14.0,73,0.00,,,0.00,304,Wunderground v.1.15,2014-04-17 16:40:00,
2014-04-17 11:46:00,46.3,38.1,30.17,SW,233,15.0,16.0,73,0.00,,,0.00,413,Wunderground v.1.15,2014-04-17 16:46:00,
2014-04-17 11:52:00,46.0,38.2,30.17,SW,229,15.0,16.0,74,0.00,,,0.00,352,Wunderground v.1.15,2014-04-17 16:52:00,
2014-04-17 11:58:00,45.9,38.1,30.17,West,264,14.0,19.0,74,0.00,,,0.00,338,Wunderground v.1.15,2014-04-17 16:58:00,
2014-04-17 12:04:00,45.8,38.3,30.17,SW,232,13.0,16.0,75,0.00,,,0.00,376,Wunderground v.1.15,2014-04-17 17:04:00,
2014-04-17 12:10:00,45.7,38.2,30.17,WSW,247,13.0,13.0,75,0.00,,,0.00,292,Wunderground v.1.15,2014-04-17 17:10:00,
2014-04-17 12:16:00,45.8,38.3,30.18,SW,227,11.0,13.0,75,0.00,,,0.00,320,Wunderground v.1.15,2014-04-17 17:16:00,
2014-04-17 12:22:00,45.7,38.6,30.18,West,269,12.0,14.0,76,0.00,,,0.00,327,Wunderground v.1.15,2014-04-17 17:22:00,
2014-04-17 12:28:00,45.6,38.1,30.18,West,265,12.0,15.0,75,0.00,,,0.00,311,Wunderground v.1.15,2014-04-17 17:28:00,
2014-04-17 12:34:00,45.7,38.6,30.18,SW,236,11.0,12.0,76,0.00,,,0.00,315,Wunderground v.1.15,2014-04-17 17:34:00,
2014-04-17 12:40:00,45.5,38.4,30.18,WSW,240,11.0,12.0,76,0.00,,,0.00,306,Wunderground v.1.15,2014-04-17 17:40:00,
2014-04-17 12:46:00,45.5,38.4,30.18,SW,232,12.0,12.0,76,0.00,,,0.00,320,Wunderground v.1.15,2014-04-17 17:46:00,
2014-04-17 12:52:00,45.5,38.4,30.18,WSW,241,11.0,12.0,76,0.00,,,0.00,311,Wunderground v.1.15,2014-04-17 17:52:00,
2014-04-17 12:58:00,45.5,38.4,30.19,WSW,239,12.0,13.0,76,0.00,,,0.00,325,Wunderground v.1.15,2014-04-17 17:58:00,
2014-04-17 13:05:00,45.8,38.7,30.19,WSW,254,10.0,12.0,76,0.00,,,0.00,346,Wunderground v.1.15,2014-04-17 18:05:00,
2014-04-17 13:10:00,45.8,38.3,30.19,WSW,239,10.0,14.0,75,0.00,,,0.00,476,Wunderground v.1.15,2014-04-17 18:10:00,
2014-04-17 13:16:00,45.8,38.3,30.20,West,261,11.0,14.0,75,0.00,,,0.00,446,Wunderground v.1.15,2014-04-17 18:16:00,
2014-04-17 13:22:00,46.0,38.5,30.20,West,275,10.0,12.0,75,0.00,,,0.00,459,Wunderground v.1.15,2014-04-17 18:22:00,
2014-04-17 13:28:00,46.3,38.8,30.20,SW,236,8.0,12.0,75,0.00,,,0.00,418,Wunderground v.1.15,2014-04-17 18:28:00,
2014-04-17 13:34:00,46.3,38.5,30.20,WSW,240,8.0,12.0,74,0.00,,,0.00,647,Wunderground v.1.15,2014-04-17 18:34:00,
2014-04-17 13:40:00,46.5,39.0,30.20,SW,232,9.0,9.0,75,0.00,,,0.00,513,Wunderground v.1.15,2014-04-17 18:40:00,
2014-04-17 13:46:00,46.9,39.0,30.20,WSW,246,8.0,9.0,74,0.00,,,0.00,373,Wunderground v.1.15,2014-04-17 18:46:00,
2014-04-17 13:52:00,47.0,38.8,30.20,SW,216,8.0,8.0,73,0.00,,,0.00,413,Wunderground v.1.15,2014-04-17 18:52:00,
2014-04-17 13:58:00,47.4,39.2,30.20,WSW,252,7.0,11.0,73,0.00,,,0.00,439,Wunderground v.1.15,2014-04-17 18:58:00,
2014-04-17 14:05:00,47.8,39.2,30.20,West,266,7.0,8.0,72,0.00,,,0.00,403,Wunderground v.1.15,2014-04-17 19:05:00,
2014-04-17 14:10:00,48.1,39.5,30.20,SSW,212,6.0,6.0,72,0.00,,,0.00,492,Wunderground v.1.15,2014-04-17 19:10:00,
2014-04-17 14:16:00,48.4,39.8,30.20,WSW,243,7.0,10.0,72,0.00,,,0.00,388,Wunderground v.1.15,2014-04-17 19:16:00,
2014-04-17 14:22:00,48.5,39.5,30.20,West,269,7.0,8.0,71,0.00,,,0.00,404,Wunderground v.1.15,2014-04-17 19:22:00,
2014-04-17 14:28:00,48.8,39.4,30.20,SW,233,7.0,8.0,70,0.00,,,0.00,330,Wunderground v.1.15,2014-04-17 19:28:00,
2014-04-17 14:34:00,49.1,39.7,30.20,WSW,248,7.0,7.0,70,0.00,,,0.00,837,Wunderground v.1.15,2014-04-17 19:34:00,
2014-04-17 14:40:00,49.2,39.5,30.20,WSW,250,7.0,7.0,69,0.00,,,0.00,323,Wunderground v.1.15,2014-04-17 19:40:00,
2014-04-17 14:46:00,49.3,39.6,30.20,SSW,211,8.0,12.0,69,0.00,,,0.00,387,Wunderground v.1.15,2014-04-17 19:46:00,
2014-04-17 14:52:00,49.6,39.8,30.20,SW,219,7.0,7.0,69,0.00,,,0.00,392,Wunderground v.1.15,2014-04-17 19:52:00,
2014-04-17 14:58:00,50.0,39.8,30.20,West,267,5.0,8.0,68,0.00,,,0.00,369,Wunderground v.1.15,2014-04-17 19:58:00,
2014-04-17 15:05:00,50.5,39.9,30.20,SW,232,6.0,9.0,67,0.00,,,0.00,555,Wunderground v.1.15,2014-04-17 20:05:00,
2014-04-17 15:10:00,50.6,39.7,30.20,WSW,244,7.0,7.0,66,0.00,,,0.00,434,Wunderground v.1.15,2014-04-17 20:10:00,
2014-04-17 15:16:00,50.8,39.8,30.20,West,273,6.0,7.0,66,0.00,,,0.00,487,Wunderground v.1.15,2014-04-17 20:16:00,
2014-04-17 15:22:00,51.1,39.3,30.20,West,262,8.0,10.0,64,0.00,,,0.00,670,Wunderground v.1.15,2014-04-17 20:22:00,
2014-04-17 15:28:00,51.4,39.2,30.20,SW,235,8.0,10.0,63,0.00,,,0.00,677,Wunderground v.1.15,2014-04-17 20:28:00,
2014-04-17 15:34:00,51.7,39.9,30.20,SW,217,6.0,7.0,64,0.00,,,0.00,747,Wunderground v.1.15,2014-04-17 20:34:00,
2014-04-17 15:40:00,51.8,39.6,30.20,WSW,252,7.0,7.0,63,0.00,,,0.00,668,Wunderground v.1.15,2014-04-17 20:40:00,
2014-04-17 15:46:00,52.0,40.2,30.20,WNW,285,7.0,7.0,64,0.00,,,0.00,366,Wunderground v.1.15,2014-04-17 20:46:00,
2014-04-17 15:52:00,52.4,39.8,30.20,WNW,286,6.0,6.0,62,0.00,,,0.00,652,Wunderground v.1.15,2014-04-17 20:52:00,
2014-04-17 15:58:00,52.4,40.2,30.20,West,279,6.0,6.0,63,0.00,,,0.00,316,Wunderground v.1.15,2014-04-17 20:58:00,
2014-04-17 16:04:00,52.5,39.8,30.20,WNW,295,5.0,5.0,62,0.00,,,0.00,258,Wunderground v.1.15,2014-04-17 21:04:00,
2014-04-17 16:10:00,52.7,39.6,30.20,West,275,4.0,6.0,61,0.00,,,0.00,610,Wunderground v.1.15,2014-04-17 21:10:00,
2014-04-17 16:16:00,53.0,39.9,30.20,WSW,250,6.0,15.0,61,0.00,,,0.00,548,Wunderground v.1.15,2014-04-17 21:16:00,
2014-04-17 16:22:00,53.1,40.0,30.20,SSW,203,7.0,7.0,61,0.00,,,0.00,605,Wunderground v.1.15,2014-04-17 21:22:00,
2014-04-17 16:28:00,53.6,40.0,30.20,WSW,246,6.0,11.0,60,0.00,,,0.00,285,Wunderground v.1.15,2014-04-17 21:28:00,
2014-04-17 16:34:00,53.5,39.9,30.20,NW,306,7.0,7.0,60,0.00,,,0.00,603,Wunderground v.1.15,2014-04-17 21:34:00,
2014-04-17 16:40:00,53.7,39.7,30.20,WNW,298,4.0,7.0,59,0.00,,,0.00,468,Wunderground v.1.15,2014-04-17 21:40:00,
2014-04-17 16:46:00,53.6,39.6,30.21,SW,230,5.0,9.0,59,0.00,,,0.00,515,Wunderground v.1.15,2014-04-17 21:46:00,
2014-04-17 16:52:00,53.5,39.9,30.21,WNW,283,6.0,7.0,60,0.00,,,0.00,459,Wunderground v.1.15,2014-04-17 21:52:00,
2014-04-17 16:58:00,53.8,39.8,30.20,SW,236,5.0,8.0,59,0.00,,,0.00,367,Wunderground v.1.15,2014-04-17 21:58:00,
2014-04-17 17:04:00,53.8,40.2,30.20,West,279,6.0,8.0,60,0.00,,,0.00,204,Wunderground v.1.15,2014-04-17 22:04:00,
2014-04-17 17:10:00,53.7,40.1,30.20,West,277,7.0,7.0,60,0.00,,,0.00,178,Wunderground v.1.15,2014-04-17 22:10:00,
2014-04-17 17:16:00,53.9,39.9,30.21,West,275,7.0,7.0,59,0.00,,,0.00,448,Wunderground v.1.15,2014-04-17 22:16:00,
2014-04-17 17:22:00,54.2,40.6,30.21,West,278,4.0,5.0,60,0.00,,,0.00,142,Wunderground v.1.15,2014-04-17 22:22:00,
2014-04-17 17:28:00,54.2,40.2,30.21,West,268,4.0,7.0,59,0.00,,,0.00,403,Wunderground v.1.15,2014-04-17 22:28:00,
2014-04-17 17:34:00,54.3,39.8,30.21,West,270,6.0,6.0,58,0.00,,,0.00,308,Wunderground v.1.15,2014-04-17 22:34:00,
2014-04-17 17:40:00,54.7,40.2,30.21,WNW,292,3.0,6.0,58,0.00,,,0.00,274,Wunderground v.1.15,2014-04-17 22:40:00,
2014-04-17 17:46:00,54.7,40.2,30.21,WSW,257,5.0,7.0,58,0.00,,,0.00,304,Wunderground v.1.15,2014-04-17 22:46:00,
2014-04-17 17:52:00,54.7,39.8,30.21,West,271,5.0,6.0,57,0.00,,,0.00,251,Wunderground v.1.15,2014-04-17 22:52:00,
2014-04-17 17:58:00,55.0,40.5,30.20,West,263,3.0,6.0,58,0.00,,,0.00,211,Wunderground v.1.15,2014-04-17 22:58:00,
2014-04-17 18:05:00,54.8,39.8,30.20,West,261,5.0,7.0,57,0.00,,,0.00,239,Wunderground v.1.15,2014-04-17 23:05:00,
2014-04-17 18:10:00,54.5,40.0,30.20,WNW,292,6.0,6.0,58,0.00,,,0.00,197,Wunderground v.1.15,2014-04-17 23:10:00,
2014-04-17 18:16:00,54.6,39.7,30.21,West,280,5.0,6.0,57,0.00,,,0.00,192,Wunderground v.1.15,2014-04-17 23:16:00,
2014-04-17 18:22:00,54.8,39.8,30.21,WNW,303,4.0,6.0,57,0.00,,,0.00,171,Wunderground v.1.15,2014-04-17 23:22:00,
2014-04-17 18:28:00,54.7,39.8,30.21,NW,313,6.0,7.0,57,0.00,,,0.00,153,Wunderground v.1.15,2014-04-17 23:28:00,
2014-04-17 18:34:00,54.6,40.1,30.21,West,279,5.0,6.0,58,0.00,,,0.00,141,Wunderground v.1.15,2014-04-17 23:34:00,
2014-04-17 18:40:00,54.5,40.0,30.21,WNW,288,4.0,7.0,58,0.00,,,0.00,130,Wunderground v.1.15,2014-04-17 23:40:00,
2014-04-17 18:46:00,54.3,39.8,30.21,NW,325,6.0,7.0,58,0.00,,,0.00,105,Wunderground v.1.15,2014-04-17 23:46:00,
2014-04-17 18:52:00,54.1,39.6,30.21,NW,323,6.0,7.0,58,0.00,,,0.00,77,Wunderground v.1.15,2014-04-17 23:52:00,
2014-04-17 18:58:00,53.9,40.3,30.21,WNW,292,6.0,7.0,60,0.00,,,0.00,53,Wunderground v.1.15,2014-04-17 23:58:00,
2014-04-17 19:05:00,53.6,39.6,30.21,WNW,300,5.0,5.0,59,0.00,,,0.00,44,Wunderground v.1.15,2014-04-18 00:05:00,
2014-04-17 19:10:00,53.4,39.9,30.21,WNW,290,5.0,8.0,60,0.00,,,0.00,26,Wunderground v.1.15,2014-04-18 00:10:00,
2014-04-17 19:16:00,53.1,39.6,30.22,WNW,290,4.0,8.0,60,0.00,,,0.00,18,Wunderground v.1.15,2014-04-18 00:16:00,
2014-04-17 19:22:00,53.0,39.5,30.22,WNW,299,4.0,4.0,60,0.00,,,0.00,16,Wunderground v.1.15,2014-04-18 00:22:00,
2014-04-17 19:28:00,52.9,39.8,30.22,WNW,296,4.0,6.0,61,0.00,,,0.00,11,Wunderground v.1.15,2014-04-18 00:28:00,
2014-04-17 19:34:00,52.7,39.6,30.22,WNW,296,3.0,4.0,61,0.00,,,0.00,5,Wunderground v.1.15,2014-04-18 00:34:00,
2014-04-17 19:40:00,52.6,39.5,30.22,WNW,296,3.0,3.0,61,0.00,,,0.00,0,Wunderground v.1.15,2014-04-18 00:40:00,
2014-04-17 19:42:00,52.5,39.4,30.22,WNW,296,2.0,3.0,61,0.00,,,0.00,0,Wunderground v.1.15,2014-04-18 00:42:00,
2014-04-17 19:48:00,52.3,39.2,30.23,WNW,296,1.0,3.0,61,0.00,,,0.00,0,Wunderground v.1.15,2014-04-18 00:48:00,
2014-04-17 19:54:00,52.1,39.5,30.23,WNW,296,1.0,1.0,62,0.00,,,0.00,0,Wunderground v.1.15,2014-04-18 00:54:00,
2014-04-17 20:00:00,52.1,39.9,30.23,WNW,296,1.0,1.0,63,0.00,,,0.00,0,Wunderground v.1.15,2014-04-18 01:00:00,
2014-04-17 20:06:00,51.9,39.7,30.23,WNW,296,0.0,1.0,63,0.00,,,0.00,0,Wunderground v.1.15,2014-04-18 01:06:00,
2014-04-17 20:12:00,51.6,40.2,30.23,WNW,296,0.0,0.0,65,0.00,,,0.00,0,Wunderground v.1.15,2014-04-18 01:12:00,
2014-04-17 20:16:00,51.4,40.4,30.24,WNW,296,0.0,0.0,66,0.00,,,0.00,0,Wunderground v.1.15,2014-04-18 01:16:00,
2014-04-17 20:22:00,50.9,41.1,30.24,WNW,296,0.0,0.0,69,0.00,,,0.00,0,Wunderground v.1.15,2014-04-18 01:22:00,
2014-04-17 20:28:00,50.5,41.1,30.25,WNW,296,0.0,0.0,70,0.00,,,0.00,0,Wunderground v.1.15,2014-04-18 01:28:00,
2014-04-17 20:34:00,50.3,40.9,30.25,WNW,296,0.0,0.0,70,0.00,,,0.00,0,Wunderground v.1.15,2014-04-18 01:34:00,
2014-04-17 20:40:00,50.0,40.2,30.25,WNW,296,0.0,0.0,69,0.00,,,0.00,0,Wunderground v.1.15,2014-04-18 01:40:00,
2014-04-17 20:46:00,49.7,39.6,30.25,WNW,296,0.0,0.0,68,0.00,,,0.00,0,Wunderground v.1.15,2014-04-18 01:46:00,
2014-04-17 20:52:00,49.4,39.3,30.25,WNW,296,0.0,0.0,68,0.00,,,0.00,0,Wunderground v.1.15,2014-04-18 01:52:00,
2014-04-17 20:58:00,49.0,39.3,30.25,WNW,296,0.0,0.0,69,0.00,,,0.00,0,Wunderground v.1.15,2014-04-18 01:58:00,
2014-04-17 21:05:00,48.4,39.1,30.25,WNW,296,0.0,1.0,70,0.00,,,0.00,0,Wunderground v.1.15,2014-04-18 02:05:00,
2014-04-17 21:10:00,47.8,38.8,30.25,WNW,296,1.0,1.0,71,0.00,,,0.00,0,Wunderground v.1.15,2014-04-18 02:10:00,
2014-04-17 21:16:00,47.5,38.6,30.25,WNW,296,0.0,1.0,71,0.00,,,0.00,0,Wunderground v.1.15,2014-04-18 02:16:00,
2014-04-17 21:22:00,47.3,38.4,30.25,WNW,296,0.0,0.0,71,0.00,,,0.00,0,Wunderground v.1.15,2014-04-18 02:22:00,
2014-04-17 21:28:00,47.2,38.6,30.25,WNW,296,0.0,0.0,72,0.00,,,0.00,0,Wunderground v.1.15,2014-04-18 02:28:00,
2014-04-17 21:34:00,47.1,38.9,30.25,WNW,296,0.0,0.0,73,0.00,,,0.00,0,Wunderground v.1.15,2014-04-18 02:34:00,
2014-04-17 21:40:00,47.0,38.8,30.25,NNW,342,0.0,5.0,73,0.00,,,0.00,0,Wunderground v.1.15,2014-04-18 02:40:00,
2014-04-17 21:46:00,47.0,39.1,30.26,North,360,3.0,5.0,74,0.00,,,0.00,0,Wunderground v.1.15,2014-04-18 02:46:00,
2014-04-17 21:52:00,47.2,39.3,30.26,North,360,4.0,6.0,74,0.00,,,0.00,0,Wunderground v.1.15,2014-04-18 02:52:00,
2014-04-17 21:58:00,47.2,39.3,30.26,NNW,335,4.0,6.0,74,0.00,,,0.00,0,Wunderground v.1.15,2014-04-18 02:58:00,
2014-04-17 22:05:00,47.2,39.0,30.26,North,11,5.0,5.0,73,0.00,,,0.00,0,Wunderground v.1.15,2014-04-18 03:05:00,
2014-04-17 22:10:00,47.1,38.9,30.26,North,350,6.0,6.0,73,0.00,,,0.00,0,Wunderground v.1.15,2014-04-18 03:10:00,
2014-04-17 22:16:00,47.0,39.1,30.26,North,9,5.0,9.0,74,0.00,,,0.00,0,Wunderground v.1.15,2014-04-18 03:16:00,
2014-04-17 22:22:00,46.9,39.0,30.26,North,360,5.0,6.0,74,0.00,,,0.00,0,Wunderground v.1.15,2014-04-18 03:22:00,
2014-04-17 22:28:00,46.7,38.9,30.26,North,355,5.0,6.0,74,0.00,,,0.00,0,Wunderground v.1.15,2014-04-18 03:28:00,
2014-04-17 22:34:00,46.5,39.0,30.26,North,355,5.0,5.0,75,0.00,,,0.00,0,Wunderground v.1.15,2014-04-18 03:34:00,
2014-04-17 22:40:00,46.1,38.6,30.26,NNW,345,5.0,8.0,75,0.00,,,0.00,0,Wunderground v.1.15,2014-04-18 03:40:00,
2014-04-17 22:46:00,45.8,38.3,30.26,NNW,348,6.0,8.0,75,0.00,,,0.00,0,Wunderground v.1.15,2014-04-18 03:46:00,
2014-04-17 22:52:00,45.5,38.4,30.26,North,355,6.0,6.0,76,0.00,,,0.00,0,Wunderground v.1.15,2014-04-18 03:52:00,
2014-04-17 22:58:00,45.2,38.4,30.26,NNW,340,6.0,6.0,77,0.00,,,0.00,0,Wunderground v.1.15,2014-04-18 03:58:00,
2014-04-17 23:02:00,45.1,38.3,30.26,NW,320,6.0,8.0,77,0.00,,,0.00,0,Wunderground v.1.15,2014-04-18 04:02:00,
2014-04-17 23:05:00,45.0,38.2,30.26,NNW,342,6.0,9.0,77,0.00,,,0.00,0,Wunderground v.1.15,2014-04-18 04:05:00,
2014-04-17 23:08:00,44.8,38.0,30.26,NNW,339,6.0,9.0,77,0.00,,,0.00,0,Wunderground v.1.15,2014-04-18 04:08:00,